{"data":{"norad_id":48151,"intl_designator":"2021-027BM","name":"STARLINK-2503","alt_names":[],"object_type":"PAYLOAD","status":"ACTIVE","operator":null,"country":"US","launch_date":"2021-04-07","launch_site_code":"AFETR","launch_vehicle":null,"mission":null,"orbit_class":"UNKNOWN","rcs_meters":null,"size_class":null,"mass_kg":null,"dimensions":null,"purposes":["comms"],"wikipedia_slug":null,"has_3d_model":false,"image_url":null,"decayed_at":null,"tle_current":{"epoch":"2026-09-20T03:35:17.461824Z","epoch_age_seconds":63888,"freshness":"FRESH","line1":"1 48151U 21027BM  26263.14950766 -.00001140  00000+0 -24969-4 0  9999","line2":"2 48151  53.1589 327.6859 0001332  89.6483 270.4671 15.31705379302484","mean_motion":15.31705379,"eccentricity":0.0001332,"inclination_deg":53.1589,"raan_deg":327.6859,"arg_perigee_deg":89.6483,"mean_anomaly_deg":270.4671,"bstar":-2.4969e-5,"rev_number":30248,"period_min":94.012857808212,"perigee_km":469.8116924735,"apogee_km":471.63622903345,"semimajor_km":6848.8609607535,"source":"CELESTRAK","updated_at":"2026-09-20T09:00:38.926969Z"}}}